Showing default

OPS 2366 (TRANSIT 14), 2401

Orbit data source: Space-Track

OPS 2366 (TRANSIT 14), 2401 is a payload satellite owned by USN NAVAIR (US) in LEO that was launched on Thu, 18 Aug 1966 UTC via an SCOUT A launch vehicle from the Air Force Western Test Range (AFWTR). Payload-class satellites include a variety of spacecraft equipped with specific instruments for various scientific and technological missions. These include communications satellites like Starlink; space stations such as the ISS; scientific satellites like the Hubble; Earth observation satellites from companies like Planet Labs, Umbra, and HawkEye 360; GPS; miniature CubeSats for education and research; and military/defense satellites.

Loading next visibility...
Identifier
2401, 1966-076A
Orbit
LEO
Country
Flag of USUS
Related business
Manufacturer
APL
Mission
Spacecraft
Bus & Motor
TRANSIT 5, Unknown motor
Mass
~49 kg wet, ~49 kg dry
Launch date (UTC)
1966-08-18 (60 years ago)
Launch vehicle
SCOUT A
Launch site
Air Force Western Test Range (AFWTR)
Object type
Payload
Rocket body
Debris
Shape & HBR
Unknown
Radar Cross Section
Medium (>0.1 m² and <1 m²)

Expand to show TLE details & history
Last TLE update: 12 hours ago

TLE from 12 hours ago
0 OPS 2366 (TRANSIT 14)
1  2401U 66076A   26192.13394764  .00000062  00000-0  73909-4 0  9999
2  2401  88.8450  63.0032 0030752 233.8168 292.1307 13.53960722954330
Epoch: 2026-07-11T03:12Z
TLE epoch observation values (Epoch: 2026-07-11T03:12:53.076Z)
Latitude
14.34649°
Longitude
-94.5634°
Altitude
1,051.404 km
Speed
7.331 km/s
True Right ascension
16h 10m 50s
True Declination
14° 16' 03"
Sunlit
Object was in partial shadow at epoch
Visualization orbit readout
Latitude
Unknown
Longitude
Unknown
Altitude
Unknown
Speed
Unknown
Apparent Right ascension
Unknown
Apparent Declination
Unknown
Sunlit
N/A
Visualization observer readout
Local Sidereal Time
03:29:46
Azimuth
Unknown
Elevation
Unknown
Doppler factor
Unknown
Orbital elements
Apogee altitude
1,077.627 km
Perigee altitude
1,031.912 km
Semi-major axis
7,432.906 km
Eccentricity
0.00308
Inclination
88.845°
RAAN
63.0032°
Arg. of periapsis
233.8168°
True anomaly
291.8038°
Mean anomaly
292.1307°
Eccentric anomaly
291.9673°
Mean motion
3.38692 °/min
Orbital period
106.29 mins
BSTAR
0.000073909
Loading maneuver chart data...
Computing Atmospheric mass density...
Loading historical data...
Loading historical data...
Loading historical data...
Loading historical data...
Loading historical data...
Loading historical data...
Loading historical data...

Documentation

Showing up to 5 results
|